sat.trackr.live / text

‹ back to catalog

STARLINK-35243

NORAD 66016 · 2025-232M

PAYLOAD ACTIVE UNKNOWN

§ Identity

Operator
Country
US
Launch date
2025-10-16
Launch site
AFETR
Launch vehicle
Mass (kg)
RCS (m²)

Purposes: comms

External: N2YO · Heavens-Above · Gunter

§ Orbital elements

Epoch: 2026-05-25T04:25:41.703744Z

Period
94.11 min
Inclination
53.1567°
Eccentricity
0.0001126
Mean motion
15.30205050 rev/d
Perigee alt
474.4 km
Apogee alt
476.0 km
Semi-major
6,853.3 km
B*
4.6543e-4
RAAN
108.8522°
Arg perigee
91.1408°
Mean anomaly
268.9722°
Rev number
3,514

§ Raw data

STARLINK-352431 66016U 25232M   26145.18451046  .00013453  00000+0  46543-3 0  99902 66016  53.1567 108.8522 0001126  91.1408 268.9722 15.30205050 35147

JSON: /api/v1/satellites/66016 · /tle

For live sub-satellite position, see the globe view (requires WebGL).

§ Visibility from observer

Set your observer location to see the next 7 days of passes ≥ 10°. The values pass through the URL so the page stays shareable.

No JS? Fill the form by hand. The geolocation button needs JavaScript.